Change the Weather History Date:

Tuesday, October 16, 2012

  Actual Average Record
Temperature  
Mean Temperature 54 °F 53 °F  
Max Temperature 61 °F 60 °F 70 °F (1974)
Min Temperature 47 °F 46 °F 35 °F (1980)
Degree Days  
Heating Degree Days 11 12  
Month to date heating degree days 130 163  
Since 1 July heating degree days 283 380  
Cooling Degree Days 0 0  
Month to date cooling degree days 0 0  
Year to date cooling degree days 177 189  
Growing Degree Days 4 (Base 50)    
Moisture  
Dew Point 45 °F    
Average Humidity 67    
Maximum Humidity 83    
Minimum Humidity 51    
Precipitation  
Precipitation 0.00 in 0.11 in 0.78 in (2009)
Month to date precipitation 1.23 1.39  
Year to date precipitation 27.65 23.48  
Snow  
Snow 0.00 in - - ()
Month to date snowfall 0.0  
Since 1 July snowfall 0.0  
Snow Depth 0.00 in    
Sea Level Pressure  
Sea Level Pressure 29.97 in    
Wind  
Wind Speed 12 mph (SSW)    
Max Wind Speed 29 mph    
Max Gust Speed 38 mph    
Visibility 10 miles    
Events      
T = Trace of Precipitation, MM = Missing Value Source: NWS Daily Summary

Daily Weather History Graph

Daily Weather History Graph

Search for Another Location

Airport or City:

Trip Planner

Search our weather history database for the weather conditions in past years. The results will help you decide how hot, cold, wet, or windy it might be!

Date:

Astronomy

Oct. 16, 2012 Rise Set
Actual Time 7:30 AM PDT 6:18 PM PDT
Civil Twilight 6:59 AM PDT 6:49 PM PDT
Nautical Twilight 6:23 AM PDT 7:24 PM PDT
Astronomical Twilight 5:47 AM PDT 8:00 PM PDT
Moon 9:08 AM PDT (10/16) 6:56 PM PDT (10/16)
Length of Visible Light 11h 50m
Length of Day
10h 48m
New Moon, 2% of the Moon is Illuminated
Oct 16
New Moon
Oct 21
First Quarter
Oct 29
Full
Nov 6
Last Quarter
Nov 13
New

Hourly Weather History & Observations

Time (PDT) Temp. Dew Point Humidity Pressure Visibility Wind Dir Wind Speed Gust Speed Precip Events Conditions
12:53 AM 57.0 °F 52.0 °F 83% 29.61 in 10.0 mi SSW 23.0 mph 29.9 mph N/A   Partly Cloudy
1:09 AM 55.4 °F 51.8 °F 88% 29.60 in 10.0 mi SSW 21.9 mph 38.0 mph N/A   Mostly Cloudy
1:39 AM 55.4 °F 51.8 °F 88% 29.62 in 10.0 mi SSW 16.1 mph 27.6 mph N/A   Scattered Clouds
1:53 AM 55.9 °F 50.0 °F 80% 29.64 in 10.0 mi SSW 20.7 mph 27.6 mph N/A   Scattered Clouds
2:11 AM 55.4 °F 50.0 °F 82% 29.64 in 10.0 mi SSW 17.3 mph 26.5 mph N/A   Mostly Cloudy
2:53 AM 54.0 °F 48.9 °F 83% 29.68 in 10.0 mi SSW 13.8 mph - N/A   Mostly Cloudy
3:26 AM 53.6 °F 46.4 °F 77% 29.68 in 10.0 mi SSW 16.1 mph 26.5 mph N/A   Partly Cloudy
3:53 AM 54.0 °F 46.9 °F 77% 29.71 in 10.0 mi SW 19.6 mph 27.6 mph N/A   Partly Cloudy
4:31 AM 53.6 °F 46.4 °F 77% 29.71 in 10.0 mi SW 20.7 mph 27.6 mph N/A   Mostly Cloudy
4:41 AM 53.6 °F 46.4 °F 77% 29.72 in 10.0 mi SW 23.0 mph 33.4 mph N/A   Scattered Clouds
4:53 AM 53.6 °F 46.4 °F 77% 29.72 in 10.0 mi SW 20.7 mph 33.4 mph N/A   Partly Cloudy
5:53 AM 53.1 °F 45.0 °F 74% 29.79 in 10.0 mi SW 19.6 mph 26.5 mph N/A   Partly Cloudy
6:53 AM 52.0 °F 43.0 °F 71% 29.86 in 10.0 mi SSW 11.5 mph - N/A   Partly Cloudy
7:53 AM 50.0 °F 44.1 °F 80% 29.91 in 10.0 mi SSW 9.2 mph - N/A   Scattered Clouds
8:53 AM 53.1 °F 43.0 °F 69% 29.98 in 10.0 mi South 9.2 mph - N/A   Partly Cloudy
9:53 AM 55.0 °F 43.0 °F 64% 30.02 in 10.0 mi South 11.5 mph - N/A   Partly Cloudy
10:53 AM 55.9 °F 43.0 °F 62% 30.05 in 10.0 mi SSW 15.0 mph - N/A   Partly Cloudy
11:53 AM 57.9 °F 42.1 °F 56% 30.07 in 10.0 mi WSW 9.2 mph - N/A   Partly Cloudy
12:53 PM 59.0 °F 43.0 °F 55% 30.09 in 10.0 mi WSW 15.0 mph - N/A   Scattered Clouds
1:53 PM 60.1 °F 43.0 °F 53% 30.11 in 10.0 mi SW 13.8 mph - N/A   Partly Cloudy
2:53 PM 57.0 °F 44.1 °F 62% 30.12 in 10.0 mi SSW 13.8 mph - N/A   Mostly Cloudy
3:53 PM 57.9 °F 43.0 °F 58% 30.14 in 10.0 mi WSW 15.0 mph 20.7 mph N/A   Scattered Clouds
4:53 PM 55.9 °F 44.1 °F 64% 30.16 in 10.0 mi SW 16.1 mph - N/A   Scattered Clouds
5:53 PM 55.0 °F 44.1 °F 67% 30.18 in 10.0 mi SW 11.5 mph - N/A   Scattered Clouds
6:53 PM 52.0 °F 44.1 °F 74% 30.20 in 10.0 mi SSW 10.4 mph - N/A   Scattered Clouds
7:53 PM 51.1 °F 43.0 °F 74% 30.23 in 10.0 mi South 8.1 mph - N/A   Partly Cloudy
8:53 PM 50.0 °F 43.0 °F 77% 30.24 in 10.0 mi South 8.1 mph - N/A   Scattered Clouds
9:53 PM 48.9 °F 43.0 °F 80% 30.26 in 10.0 mi SSW 6.9 mph - N/A   Partly Cloudy
10:53 PM 48.0 °F 43.0 °F 83% 30.29 in 10.0 mi SSE 6.9 mph - N/A   Partly Cloudy
11:04 PM 48.2 °F 42.8 °F 82% 30.27 in 10.0 mi SE 5.8 mph - N/A   Mostly Cloudy
11:53 PM 48.0 °F 43.0 °F 83% 30.30 in 10.0 mi SSE 5.8 mph - N/A   Overcast